[ hide orbit diagram ]
For accurate long-term ephemerides, please instead use our Horizons system.This orbit viewer was implemented using two-body methods, and hence should not be used for determining accurate long-term trajectories (over several years or decades) or planetary encounter circumstances.
Orbital Elements at Epoch 2459200.5 (2020-Dec-17.0) TDB
Reference: JPL 79 (heliocentric ecliptic J2000)
Element | Value | Uncertainty (1-sigma) | Units |
e | .08132842822767378 | 1.8741e-08 | |
a | 2.863880463875651 | 9.3053e-09 | au |
q | 2.630965567116703 | 5.273e-08 | au |
i | 1.005587824309112 | 2.9851e-07 | deg |
node | 253.8977596425021 | 1.1359e-05 | deg |
peri | 122.1195430396825 | 1.511e-05 | deg |
M | 165.7319566906191 | 1.3502e-05 | deg |
tp | 2458385.543338068255 (2018-Sep-24.04333807) | 6.4603e-05 | TDB |
period | 1770.234323867333 4.85 | 8.6278e-06 2.362e-08 | d yr |
n | .203362908032157 | 9.9115e-10 | deg/d |
Q | 3.096795360634599 | 1.0062e-08 | au |
|
| | Orbit Determination Parameters
Additional Information
|
[ show covariance matrix ]
Physical Parameter Table
Parameter |
Symbol |
Value |
Units |
Sigma |
Reference |
Notes |
absolute magnitude |
H |
11.32 |
|
n/a |
E2021B10 |
|
diameter |
diameter |
15.812 |
km |
0.111 |
urn:nasa:pds:neowise_diameters_albedos::2.0[mainbelt] (http://adsabs.harvard.edu/abs/2014ApJ...791..121M) |
|
rotation period |
rot_per |
18.348 |
h |
n/a |
LCDB (Rev. 2020-October); Warner et al., 2009 |
Published Reference List: [Binzel, R.P. (1987) Icarus 72, 135-208.] [Yoshida, F.; Dermawan, B.; Ito, T.; Sawabe, Y.; et al. (2004) Pub. Astron. Soc. Japan 56, 1105-1113.] [Hanus, J.; Durech, J.; Broz, M.; Warner, B.D.; et al. (2011) Astron. Astrophys. 530, A134.] [Slivan, S.M.; Molnar, L.A. (2012) Icarus 220, 1097-1103.] [Yoshida, F.; Ito, T.; Dermawan, B.; Nakamura, T.; et al. (2016) Icarus 269, 15-22.] [Oey, J.; Groom, R. (2018) Minor Planet Bull. 45, 363-366.] [Erasmus, N.; Navarro-Meza, S.; McNeill, A.; Trilling, D.E.; et al. (2020) Ap. J. Suppl. Ser. 247, A13.] |
geometric albedo |
albedo |
0.221 |
|
0.008 |
urn:nasa:pds:neowise_diameters_albedos::2.0[mainbelt] (http://adsabs.harvard.edu/abs/2014ApJ...791..121M) |
|
B-V |
BV |
0.830 |
|
0.020 |
EAR-A-5-DDR-UBV-MEAN-VALUES-V1.2 |
#obs=1; phase=9.11 deg. |
U-B |
UB |
0.390 |
|
0.030 |
EAR-A-5-DDR-UBV-MEAN-VALUES-V1.2 |
#obs=1; phase=9.11 deg. |
|
832 Karin (A916 SE) Discovered 1916-Sep-20 by Wolf, M. at Heidelberg |
Reference: DISCOVERY.DB | Last Updated: 2003-08-29 |
|
[ show close-approach data ]
Alternate Designations
A916 SE = 1955 SD3 = A902 WH |
|
|